Regional Weather Roundup
Issued by NWS Little Rock, AR

Home | Current Version | Previous Version | Graphics & Text | Print | Product List | Glossary On
Versions: 1 2 3 4 5 6 7 8 9 10 11 12 13 14 15 16 17 18 19 20 21 22 23 24 25 26 27 28 29 30 31
000
ASUS44 KLZK 160105
RWRLZK

WEATHER ROUNDUP FOR ARKANSAS
NATIONAL WEATHER SERVICE LITTLE ROCK AR
700 PM CST SUN JAN 15 2017

NOTE: "FAIR" INDICATES FEW OR NO CLOUDS BELOW 12,000 FEET WITH NO
SIGNIFICANT WEATHER AND/OR OBSTRUCTIONS TO VISIBILITY.

ARZ001-003-010-029-160200-
NORTHWEST ARKANSAS

CITY           SKY/WX    TMP DP  RH WIND       PRES   REMARKS
FAYETTEVILLE   HVY RAIN  51  51 100 NE7       30.08F FOG
FORT SMITH     CLOUDY    48  46  93 E14       30.07F
HARRISON       FOG       42  42 100 SE5       30.15S VSB 1/4
BENTONVILLE    CLOUDY   N/A N/A N/A E8        30.09F
ROGERS         RAIN      45  45 100 NE8       30.10F FOG
SILOAM SPGS    CLOUDY    48  46  93 E12       30.06F
HIGHFILL       RAIN      48  47  96 E10       30.08F FOG
$$

ARZ004-005-016-160200-
NORTH CENTRAL ARKANSAS

CITY           SKY/WX    TMP DP  RH WIND       PRES   REMARKS
BATESVILLE     CLOUDY    43  39  87 NE7       30.22F VSB 1/2
FLIPPIN        CLOUDY    43  37  81 E7        30.16F
MTN HOME       LGT RAIN  41  41 100 SE8       30.17F VSB 3/4
$$

ARZ040-041-160200-
WEST CENTRAL ARKANSAS

CITY           SKY/WX    TMP DP  RH WIND       PRES   REMARKS
MENA           CLOUDY    54  52  94 E3        30.07S VSB 1
MOUNT IDA      CLOUDY    51  49  92 CALM      30.07F
$$

ARZ009-017-025-026-028-160200-
NORTHEAST ARKANSAS

CITY           SKY/WX    TMP DP  RH WIND       PRES   REMARKS
JONESBORO      FOG       44  43  96 NE8       30.24R VSB 1
NEWPORT        FOG       43  43 100 NE12      30.23S VSB 3/4
WALNUT RIDGE   CLOUDY    43  39  87 NE9       30.25R VSB 3/4
BLYTHEVILLE    CLOUDY    47  45  93 NE8       30.24S
$$

ARZ022-023-033-042-044-160200-
CENTRAL ARKANSAS

CITY           SKY/WX    TMP DP  RH WIND       PRES   REMARKS
LITTLE ROCK    FOG       45  45 100 E8        30.18F VSB 1/2
N LITTLE ROCK    N/A     44  44  98 E8        30.19F
JACKSONVILLE   CLOUDY    45  45 100 NE7       30.17S FOG
SEARCY         LGT RAIN  43  43 100 NE9       30.21F VSB 3/4
HOT SPRINGS    CLOUDY    50  49  96 E9        30.12F
RUSSELLVILLE   CLOUDY    47  45  93 E8        30.13F
CLINTON        CLOUDY    46  46 100 CALM      30.18S FOG
$$

ARZ036-160200-
EAST ARKANSAS

CITY           SKY/WX    TMP DP  RH WIND       PRES   REMARKS
WEST MEMPHIS   CLOUDY    49  49 100 NE7       30.19F FOG
$$

ARZ050-053-066-070-073-160200-
SOUTHWEST ARKANSAS

CITY           SKY/WX    TMP DP  RH WIND       PRES   REMARKS
ARKADELPHIA    CLOUDY    52  49  89 NE7       30.12F
CAMDEN         MOCLDY    57  50  77 E6        30.11F
TEXARKANA      LGT RAIN  58  58 100 E6        30.04F
EL DORADO      CLOUDY    60  56  86 E7        30.10S
DE QUEEN       CLOUDY    54  53  97 E10       30.03F
$$

ARZ056-057-069-160200-
SOUTHEAST ARKANSAS

CITY           SKY/WX    TMP DP  RH WIND       PRES   REMARKS
PINE BLUFF     CLOUDY    50  49  96 NE7       30.16F FOG
STUTTGART      CLOUDY    48  43  81 NE9       30.19S VSB 1/2
MONTICELLO     PTCLDY    54  51  90 NE5       30.14S

$$






USA.gov is the U.S. government's official web portal to all federal, state and local government web resources and services.